Date,TemperatureHighF,TemperatureAvgF,TemperatureLowF,DewpointHighF,DewpointAvgF,DewpointLowF,HumidityHigh,HumidityAvg,HumidityLow,PressureMaxIn,PressureMinIn,WindSpeedMaxMPH,WindSpeedAvgMPH,GustSpeedMaxMPH,PrecipitationSumIn
2013-1-1,23,11,-1,8,0,-12,70,61,48,30.15,30.01,5,1,6,0.04
2013-1-2,15,2,-5,-2,-10,-16,60,55,45,30.18,30.13,7,2,8,0.00
2013-1-3,15,6,-6,-1,-8,-18,59,52,45,30.15,30.10,9,6,10,0.00
2013-1-4,15,15,15,-1,-1,-1,47,47,47,30.10,30.10,9,9,9,0.00
2013-1-5,15,14,7,-1,-2,-6,56,48,47,30.10,29.98,9,8,9,0.00
2013-1-6,7,5,5,-5,-6,-7,57,57,55,29.98,29.92,8,3,8,0.00
2013-1-9,36,34,32,31,25,22,79,71,63,30.07,29.89,4,2,4,0.09
2013-1-10,40,28,19,31,21,12,84,77,63,29.89,29.73,22,2,24,0.13
2013-1-11,19,14,7,12,3,-6,74,60,43,30.12,29.77,0,0,0,0.00
2013-1-12,11,-1,-10,-3,-13,-22,63,57,46,30.23,30.12,4,0,4,0.00
2013-1-13,9,-2,-14,-9,-17,-27,58,49,41,30.34,30.22,7,2,7,0.00
2013-1-14,7,-1,-11,-7,-14,-24,61,53,46,30.44,30.34,9,3,10,0.00
2013-1-15,13,7,1,0,-4,-9,62,59,51,30.66,30.44,6,3,9,0.00
2013-1-16,19,11,2,4,0,-6,65,60,50,30.71,30.65,9,4,9,0.00
2013-1-17,19,7,-2,5,-5,-13,65,58,45,30.69,30.56,8,3,9,0.00
2013-1-18,18,6,-6,0,-7,-17,62,54,45,30.58,30.47,8,3,8,0.00
2013-1-19,20,4,-5,3,-9,-16,62,54,43,30.60,30.51,9,3,9,0.00
2013-1-20,23,8,-1,5,-5,-12,64,55,43,30.56,30.50,5,3,8,0.00
2013-1-21,21,8,-2,4,-5,-14,65,55,43,30.54,30.43,9,3,11,0.00
2013-1-22,22,8,-4,5,-5,-16,64,55,44,30.47,30.38,13,5,13,0.00
2013-1-23,30,16,7,14,3,-5,65,56,44,30.39,30.27,10,4,11,0.00
2013-1-24,42,33,17,30,24,7,78,70,58,30.38,30.25,10,3,11,0.00
2013-1-25,41,35,32,32,28,26,82,77,68,30.38,30.18,5,2,7,0.01
2013-1-26,48,38,33,36,31,28,85,77,62,30.18,29.95,10,1,15,0.02
2013-1-27,35,29,24,30,24,17,86,82,74,30.02,29.93,15,1,15,0.11
2013-1-28,29,24,21,18,16,12,77,73,57,30.08,29.99,15,3,17,0.00
2013-1-29,33,24,19,19,16,11,77,70,53,30.22,29.94,16,4,16,0.00
2013-1-30,37,31,20,30,24,14,79,75,67,30.27,30.17,21,11,23,0.00
2013-1-31,39,33,29,31,26,24,81,76,71,30.39,30.28,16,9,18,0.00